Airfield :
LOGIN :

Register | Disclaimer

   EN    FR    IT 

 










Legend :    VFR   Marginal VFR   IFR   Intensive IFR   Very Intensive IFR
Visi :
Ceiling :
>= 8 km
>= 3000ft
5 to 8 km
1000 to 3000 ft
1500m to 5 km
500 to 1000 ft
800 to 1500m
200 to 500 ft
< 800m
< 200 ft
Symbols :   Thunderstorms  Fog  Heavy snow  Heavy precipitations  Wind > 20 kt
SIGMETs :     Misc.  Thunderstorms  Icing  Turbulence  Mountain Waves  Volcanic Ashes






- Airport Elevation : 352 ft
- IATA code : ARW


LRAR - Arad International

CURRENT METAR :
  • 180730Z 24003KT 9999 BKN045 07/04 Q1021

EXPIRED METARs :
  • 180700Z 22003KT 190V250 9999 FEW033 BKN045 06/04 Q1021
  • 180630Z 20004KT 9999 SCT030 BKN049 06/03 Q1020
  • 180600Z 21005KT 9999 BKN047 06/03 Q1020
  • 180530Z 21005KT 9999 SCT049 06/03 Q1020
  • 180500Z 22007KT 9999 SCT048 07/03 Q1019

TAF TAF LRAR
Valid from the 18 at 06:00 until the 18 at 15:00 UTC


180500Z 1806/1815 VRB04KT 9999 BKN045
BECMG 1808/1810 34012KT



MET'MAP, your aeronautical weather chart ! - Copyright ORBIFLY December 2007 - Disclaimer

ORBIFLY MET'MAP TEAM :

Programming & Development : Alexandra Zaïnal
Concept & original design : Baudouin d'Aumeries
Assistance for programming : Marc-Olivier Méhu
Technical & hardware support : Manuel Goepfert

Contact : metmap@orbifly.com




SOURCES & CREDITS :

   NOAA